Location: Friaudour
(46.0460°N, 1.2873°E)
Time: 08:14:48
(UTC+00:00)

Cosmos 2360 Rocket - Pass Details

Date: 14 July 2020
Orbit: 832 x 846 km, 71.0° (Epoch: 15 August)

Event Time Altitude Azimuth Distance (km) Brightness Sun altitude
Rises 03:16:21 0° 338° (NNW) 3,417 5.7 -9.2°
Reaches altitude 10° 03:19:03 10° 348° (NNW) 2,479 5.1 -8.8°
Maximum altitude 03:24:10 33° 52° (NE) 1,383 4.2 -8.2°
Drops below altitude 10° 03:29:16 10° 116° (ESE) 2,466 4.9 -7.5°
Sets 03:31:57 0° 126° (SE) 3,396 5.5 -7.2°
